This demonstration page uses our WeatherBlox Daily Observations layout. Learn more.

Left ArrowRight Arrow

36.17497, -115.13722

Hourly Observations for January 4, 2019

Temp ( °F °C ) Dew Point ( °F °C ) Humidity (%) Winds ( mph kmh ) Pressure ( in mb ) Visibility ( mi km ) Precip ( " mm )
12:53 am 00:53 Clear 33 0.6 15 -9.4 47 47 NNW 5 7 30.25 1024 10 16.0934 0 0
1:53 am 01:53 Clear 34 1.1 16 -8.9 48 48 NNW 5 7 30.24 1024 10 16.0934 0 0
2:53 am 02:53 Clear 32 0 16 -8.9 52 52 NNW 3 6 30.23 1024 10 16.0934 0 0
3:53 am 03:53 Clear 33 0.6 15 -9.4 47 47 NW 6 9 30.21 1023 10 16.0934 0 0
4:53 am 04:53 Clear 32 0 17 -8.3 54 54 Calm 30.21 1023 10 16.0934 0 0
5:53 am 05:53 Clear 30 -1.1 16 -8.9 56 56 N 3 6 30.23 1024 10 16.0934 0 0
6:53 am 06:53 Sunny 31 -0.6 16 -8.9 54 54 NNW 5 7 30.24 1024 10 16.0934 0 0
7:53 am 07:53 Sunny 34 1.1 16 -8.9 48 48 NNW 5 7 30.27 1025 10 16.0934 0 0
8:53 am 08:53 Sunny 39 3.9 16 -8.9 39 39 Calm 30.27 1025 10 16.0934 0 0
9:53 am 09:53 Sunny 45 7.2 16 -8.9 31 31 Calm 30.25 1024 10 16.0934 0 0
10:53 am 10:53 Sunny 47 8.3 18 -7.8 31 31 SE 5 7 30.22 1023 10 16.0934 0 0
11:53 am 11:53 Sunny 50 10 16 -8.9 26 26 S 5 7 30.17 1022 10 16.0934 0 0
12:53 pm 12:53 Sunny 51 10.6 17 -8.3 26 26 S 3 6 30.14 1021 10 16.0934 0 0
1:53 pm 13:53 Sunny 53 11.7 17 -8.3 24 24 SSE 6 9 30.14 1021 10 16.0934 0 0
2:53 pm 14:53 Sunny 54 12.2 17 -8.3 23 23 SE 6 9 30.12 1020 10 16.0934 0 0
3:53 pm 15:53 Sunny 54 12.2 16 -8.9 22 22 SE 3 6 30.11 1020 10 16.0934 0 0
4:53 pm 16:53 Clear 51 10.6 17 -8.3 26 26 S 3 6 30.1 1019 10 16.0934 0 0
5:53 pm 17:53 Clear 48 8.9 17 -8.3 29 29 Calm 30.11 1020 10 16.0934 0 0
6:53 pm 18:53 Clear 45 7.2 18 -7.8 34 34 WNW 3 6 30.14 1021 10 16.0934 0 0
7:53 pm 19:53 Clear 42 5.6 18 -7.8 38 38 NW 5 7 30.14 1021 10 16.0934 0 0
8:53 pm 20:53 Clear 40 4.4 19 -7.2 43 43 WNW 5 7 30.13 1020 10 16.0934 0 0
9:53 pm 21:53 Clear 38 3.3 18 -7.8 44 44 N 3 6 30.12 1020 10 16.0934 0 0
10:53 pm 22:53 Clear 37 2.8 18 -7.8 46 46 NNW 5 7 30.11 1020 10 16.0934 0 0
11:53 pm 23:53 Clear 36 2.2 18 -7.8 48 48 NW 3 6 30.11 1020 10 16.0934 0 0

Powered by AerisWeather